Orbital elements:
    C/2007 M3 (LINEAR)
Epoch 2007 Sept. 17.0 TT = JDT 2454360.5
T 2007 Sept. 4.59875 TT                                 MPC
q   3.4687884            (2000.0)            P               Q
z  +0.0057129      Peri.  125.73996     +0.07547903     -0.97522780
 +/-0.0000469      Node    41.62732     -0.98573148     -0.04151203
e   0.9801830      Incl.  161.75928     -0.15045386     -0.21727286
Residuals in seconds of arc
070621 704  0.5-  0.2-    070709 850  0.1+  0.3-    070722 213  0.4-  0.1+
070621 704  0.8-  0.0     070709 850  0.4+  0.3+    070722 213  0.3-  0.1-
070621 704  0.2-  0.1+    070709 850  0.3-  0.2-    070722 213  0.1-  0.2-
070621 704  0.5-  0.0     070710 850  0.5+  0.1+    070722 J47  0.2-  0.5-
070621 704  0.3-  0.1-    070710 850  0.1+  0.9-    070722 J47  1.2+  1.8-
070621 104  0.5+  0.4-    070711 474  0.3-  0.0     070722 J47  0.5+  0.1-
070621 104  0.2-  0.3+    070711 474  0.1-  0.2-    070723 415  0.1-  0.9-
070621 104  0.4+  0.1-    070711 474  0.2-  0.1-    070723 415  0.5-  0.3-
070621 198  0.6+  0.1+    070711 J51  1.4+  0.4+    070724 349  0.1-  0.2+
070621 198  0.4+  0.1+    070711 J51  0.1+  0.2+    070724 349  0.2+  0.2+
070621 198  0.2+  0.1+    070711 J51  0.8-  0.1-    070724 A24  0.6+  0.7+
070621 198  0.2+  0.1+    070712 J53  0.4-  0.3-    070724 A24  0.6+  0.3+
070621 198  0.1-  0.0     070712 J53  0.1-  0.4-    070724 A24  0.6+  0.4+
070621 198  0.2-  0.0     070712 J53  0.1-  0.4-    070724 A24  0.3+  0.1+
070621 A17  0.1-  0.4-    070712 850  0.2-  0.3-    070724 A24  0.3+  0.1-
070621 A17  0.8-  1.1+    070712 850  0.4+  0.7-    070724 A24  0.3-  0.0
070621 A17  0.1+  0.1+    070712 850  0.2+  0.4-    070724 A24  0.5+  0.0
070621 473  0.3-  0.1-    070712 A24  0.0   0.2-    070724 A24  0.3+  0.2+
070621 A17  0.1+  0.4-    070712 A24  0.9+  0.8+    070724 A24  0.8+  0.4+
070621 473  0.5-  0.2-    070712 A24  1.1+  0.5+    070724 A24  0.8+  0.1+
070621 473  0.0   0.3-    070712 A24  0.2+  0.9-    070725 B15  0.8-  0.1-
070621 473  0.2+  0.4-    070712 A24  0.2+  0.3-    070725 048  1.6+  0.4-
070621 473  0.9+  0.8+    070712 A24  0.4-  0.3-    070725 B15  0.5-  0.1+
070621 A55  0.3+  0.1+    070712 A24  0.5+  0.5-    070725 048  1.5+  0.6-
070622 A55  0.8+  0.1-    070712 J59  0.9+  0.6+    070725 048  0.3+  0.5-
070622 473  0.1+  0.4-    070712 A24  0.0   0.1-    070725 048  0.8+  0.1+
070622 A55  0.4+  0.6+    070712 J59  0.8+  0.3-    070725 048  0.3+  0.4+
070622 649  0.6+  0.6-    070712 A24  0.1+  0.2+    070725 A79  0.7-  0.2+
070622 649  0.7-  0.1-    070713 A24  0.0   0.5+    070725 A79 (2.0+  0.1+)
070622 649  0.3+  0.6-    070713 A24  0.4-  0.6+    070725 A79 (3.3+  0.4+)
070622 850  0.1+  0.6-    070713 A24  0.3-  0.6+    070726 473  0.1-  0.1+
070622 850 (0.7+  2.3-)   070713 A24  0.4-  0.1+    070726 473  0.1+  0.2+
070622 850  0.2+  0.8-    070713 213  0.3-  0.4-    070726 J70  1.0-  0.7-
070622 651  0.5+  0.3-    070713 213  0.3-  0.4-    070726 J70  1.4-  0.1+
070622 850  1.2+  1.4-    070713 213  0.4-  0.4-    070726 J70 (4.4-  0.9-)
070622 651  0.2+  0.4-    070713 A24  0.5+  0.0     070726 J70 (3.0-  1.5+)
070622 651  0.4-  0.1+    070713 A24  0.1+  0.1+    070726 J70 (4.4-  0.9+)
070622 H06  0.4-  0.2-    070713 A24  0.3+  0.0     070726 J70 (4.0-  0.8+)
070622 850  0.6+  0.1+    070713 A24  0.4+  0.0     070726 J70  1.7-  0.9+
070622 H06  0.1+  1.2-    070713 204  0.3-  0.2-    070726 J70  0.5-  0.6+
070622 H36  0.3+  0.6-    070713 A24  0.2+  0.0     070726 J70  0.4+  0.9+
070622 H36  1.0+  0.9-    070713 A24  0.1+  0.2+    070729 H47  0.6+  0.5+
070622 H36  0.5+  0.8-    070713 A24  0.0   0.3+    070729 H47  0.1+  0.6+
070622 H36  1.0+  0.7-    070713 A24  0.2+  0.2+    070803 585 (2.5+  0.0 )
070622 673  0.8+  0.1+    070713 215  0.0   0.4-    070803 585  0.7-  0.5-
070622 673  0.0   0.3+    070713 215  0.2-  0.4-    070803 585  0.1+  0.1+
070622 673  0.7+  0.3+    070713 215  0.2-  0.3-    070803 585  0.6+  0.0
070622 673  0.1-  0.3+    070713 J51  1.2+  0.8-    070803 585  0.7+  0.0
070622 673  0.6+  0.3+    070713 A24  0.1+  0.3+    070803 585  0.5-  0.3-
070622 673  0.1-  0.1+    070713 J51  0.7+  0.2-    070803 585  0.5-  0.0
070622 673  0.4-  0.3+    070713 J51  0.7+  0.3+    070803 585  0.7+  0.3+
070622 673  0.6-  0.2+    070713 A24  0.3-  0.4+    070803 B30 (2.3-  1.1+)
070622 J87  0.3-  0.1+    070713 A24  0.2-  0.3+    070803 B30  0.0   0.5+
070622 J87  0.6+  0.8-    070713 A24  0.6-  0.4+    070804 204  0.4-  0.0
070622 J87  0.0   0.6-    070714 A24 (1.9-  5.9-)   070804 204  0.2+  0.4+
070622 A50  0.5-  0.7+    070714 204  0.1-  0.3-    070804 808  0.0   0.8-
070622 A50  0.5-  0.8+    070714 A24  0.4-  0.3+    070804 808  0.5+  0.4-
070622 A50  0.5-  0.5+    070714 232  0.5-  0.4+    070804 232  0.4-  0.4-
070622 A50  0.6-  0.5+    070714 232  0.0   0.3+    070804 232  0.0   0.3-
070622 A50  0.3-  0.5+    070714 232  0.3+  0.2+    070804 147  0.6+  0.2-
070622 A06  0.1-  0.4-    070714 J53  0.1-  0.5-    070804 232  0.4+  0.9-
070623 A06  0.1-  0.5-    070714 J53  0.2+  0.4-    070804 147  0.4+  0.1-
070623 A06  0.1+  0.5-    070714 J53  0.2+  0.5-    070804 147  0.4+  0.2-
070623 H87  0.4+  0.1-    070714 A01  0.2-  0.5-    070805 808  0.2+  0.4-
070623 932  0.1-  0.3-    070714 A01  0.5+  0.3-    070805 808  0.9-  0.6-
070623 H87 (1.6+  2.9-)   070714 A01  0.6+  0.4-    070805 808  1.9-  1.2-
070623 932  0.0   0.1-    070714 A77  0.2-  0.7+    070805 808  0.8-  0.4-
070623 932  0.0   0.3-    070714 A77  0.0   1.0+    070805 808  0.4-  0.5-
070623 H87  1.2+  0.2+    070714 A77  0.2+  0.5+    070805 213  0.5+  0.2+
070623 808  0.9+  0.6-    070714 048  0.8-  1.5-    070805 213  0.3-  0.4-
070623 808  1.1+  0.5+    070714 048  0.6-  1.5-    070805 213  0.3-  0.6-
070623 808  1.8-  1.5+    070714 048  0.0   1.2-    070805 585  0.9+  0.0
070623 808  0.2-  0.5-    070714 048  1.0-  1.7-    070805 585  0.4-  0.0
070623 850  0.3+  0.7-    070714 048 (0.1+  2.0-)   070805 585  0.2-  0.8-
070623 808  0.3-  0.3-    070714 A24  0.3-  0.7+    070805 585  0.2-  0.3-
070623 850  0.1+  0.2-    070714 A24  0.0   0.4+    070805 585  0.4-  0.1+
070623 850  0.1-  0.3-    070714 A24  0.0   0.3+    070806 H47  0.7-  0.2-
070623 G88  1.5-  0.8+    070714 A24  0.2-  0.2+    070806 H47  0.9+  1.9-
070623 651  0.3+  0.1+    070715 A24  0.1+  0.3+    070806 A24  0.1+  0.6-
070623 651  0.2-  0.5+    070715 A24  0.7-  0.1-    070806 A24  0.0   0.1+
070623 850  0.0   0.1-    070715 A24  0.0   0.9-    070806 A24  0.3+  0.1-
070623 651  0.3+  0.2-    070715 J53  0.2-  0.1+    070806 A24  0.1+  0.0
070623 G88  0.2-  0.2-    070715 J53  0.3-  0.5-    070806 A24  0.2+  0.1-
070623 673  0.0   0.3-    070715 J53  0.4-  0.6-    070806 A24  0.0   0.1+
070623 G88  0.5+  0.3-    070715 850  0.2-  0.2-    070806 A24  0.5-  0.1+
070623 673  0.2-  0.1-    070715 850  0.1+  0.2+    070806 A24  0.1-  0.0
070623 673  0.0   0.1+    070716 J51  0.5-  0.3-    070806 J53  0.6-  0.7-
070623 673  0.1-  0.6+    070716 J51  0.2-  0.2-    070806 J53  0.5-  0.6-
070623 J70 (2.7-  3.1+)   070716 J51  0.5+  0.4-    070806 J53  0.2+  0.4-
070623 J70 (1.9-  2.1+)   070716 850  0.8-  0.7+    070807 474  0.3-  0.2-
070623 J70 (1.1+  2.5+)   070716 850  0.2-  0.2-    070807 474  0.3-  0.2-
070623 J70 (4.1+  2.4+)   070716 B42  0.4-  0.5+    070807 474  0.1+  0.0
070623 J70 (4.8+  0.9-)   070716 B42  0.9-  0.5+    070807 474  0.2+  0.0
070624 213  0.1+  0.6-    070717 673  0.7-  0.0     070808 850  0.2+  0.8-
070624 213  0.2-  0.5-    070717 673  0.5-  0.0     070808 850  0.0   0.0
070624 213  0.0   0.2-    070717 213  0.4+  0.0     070808 H06  0.4+  0.6-
070624 673  0.6+  0.1-    070717 213  0.3-  0.0     070808 H06  0.7-  0.6+
070624 673  0.0   0.2+    070717 585 (5.2+  1.8+)   070810 372  0.2-  0.3-
070624 673  0.1-  0.4+    070717 585  1.2+  1.6-    070810 B20  0.5+  1.6-
070624 673  0.1+  0.0     070717 J75  0.5+  0.4-    070810 B20  0.6+  1.6-
070625 118  0.3-  0.2-    070717 213  0.2-  0.2-    070810 B20  0.5+  1.7-
070625 118  0.0   0.3-    070717 585  1.7+  0.9-    070810 A24  0.1-  0.2+
070626 673  0.6+  0.4-    070717 585 (2.0+  0.4-)   070810 A24  0.1-  0.3+
070626 704  0.0   0.5+    070717 585  1.3+  0.3+    070810 A24  0.6+  0.9+
070626 673  1.0+  0.5+    070717 048  0.6+  0.6-    070810 442  0.1-  0.2+
070626 673  0.8+  0.1+    070717 585 (4.8+  1.4+)   070810 442  0.5+  0.1+
070626 673  0.4+  0.2+    070717 048  0.1-  0.2-    070810 A24  0.1+  0.4+
070626 704  0.0   0.1-    070717 048  0.1-  0.0     070810 A24  0.1+  0.4+
070626 704  0.3+  0.4-    070717 048  0.2-  0.2+    070810 A24  0.3+  0.3+
070626 704  0.2-  0.8-    070717 048  1.5+  1.3+    070811 379  0.7+  0.5-
070626 372  0.2+  0.4+    070717 A24  0.2-  0.0     070811 379  0.0   0.3-
070626 372  0.5+  1.3+    070717 A24  0.2-  0.1+    070811 379  0.6+  0.4+
070627 673  0.1-  0.4+    070717 J75 (2.3+  0.5-)   070811 D88  0.4-  0.1+
070627 673  0.1-  0.2+    070717 A24  0.3-  0.1+    070811 D88  0.5+  0.7+
070627 673  0.3-  0.2+    070717 A24  0.5-  0.4+    070811 349  1.2+  0.2+
070627 673  0.1-  0.1+    070717 A24  0.8-  0.6+    070811 349  1.0+  0.1+
070627 300  0.1+  0.1+    070717 A24  0.8-  0.5+    070811 A24  0.1+  0.4+
070627 300  0.2+  0.2+    070717 A24  0.5-  0.3+    070811 A24  0.0   0.0
070627 300  0.2-  0.4+    070717 A24  0.3-  0.2+    070811 A24  0.0   0.3+
070627 300  0.0   0.4+    070717 A24  0.3-  0.0     070811 A24  0.2+  0.1+
070627 300  0.1+  0.2-    070717 A24  0.3-  0.1+    070811 A24  0.1-  0.3+
070628 J70  1.6-  1.5-    070717 A79  0.3+  1.3+    070811 A24  0.4+  0.3+
070628 J70  0.3-  1.2-    070718 A79  0.4+  0.5+    070812 104  0.1-  0.1-
070628 J70  1.4-  1.2-    070718 J75 (2.3+  0.5-)   070812 104  0.1+  0.3+
070629 349  0.3-  0.6-    070718 A79  0.5+  0.1-    070812 104  0.3+  0.2+
070629 349  0.2-  0.3-    070718 415  0.9+  0.4-    070812 A24  0.4-  0.3+
070630 213  0.1+  0.4-    070718 415  0.8+  0.7-    070812 A24  0.6-  0.8+
070630 213  0.0   0.2-    070718 048  0.2+  1.3+    070812 A24  0.4-  0.2+
070630 J47  1.0-  1.8+    070718 048  0.1-  0.6+    070812 A24  0.4-  0.5+
070630 J47  1.1-  1.7+    070718 048  0.6+  0.2+    070812 A24  0.2-  0.1+
070630 J47  1.7-  1.8+    070718 048  0.1-  0.1+    070812 A24  0.2-  0.5+
070630 213  0.1-  0.1-    070718 048  0.7-  0.5-    070813 B30  0.1-  0.8+
070630 J47  1.0-  1.6+    070718 A24  0.1+  0.5+    070813 B30  0.2+  0.8+
070701 J70 (0.8+  3.8-)   070718 A24  0.1+  0.5+    070814 B20  0.5+  0.0
070701 J70 (1.6-  6.4+)   070718 A24  0.2-  0.4+    070814 B20  0.3+  0.1-
070701 J70 (0.6+  2.9-)   070718 A24  0.2+  0.2+    070814 B20  0.4+  0.4-
070701 J70  1.6+  0.4+    070718 A24  0.1+  0.4+    070816 379  0.2-  0.4-
070703 673  0.5-  0.2-    070718 A24  0.7+  0.7+    070816 379  0.2+  0.0
070703 673  0.1+  0.4+    070718 A24  0.0   0.2+    070816 379  0.0   0.2-
070703 673  0.3-  0.0     070718 A24  0.7+  0.1-    070816 232  0.2-  0.0
070704 850  0.0   0.2-    070718 A24  0.3+  0.0     070816 232  0.0   0.1-
070704 850  0.5+  0.1-    070718 A24  0.0   0.1-    070816 232  0.1-  0.2-
070704 850  0.5-  0.7-    070719 A24  0.1-  0.2+    070816 J53  0.1-  0.3+
070704 673 (2.7+  2.3+)   070719 A24  0.1+  0.0     070816 J53  0.2-  0.3+
070704 673 (2.7+  1.0+)   070719 235  0.1+  0.2-    070816 J53  0.3-  0.3+
070704 A24  0.9-  0.2+    070719 A24  0.1-  0.2+    070817 A24  0.3-  0.1+
070704 A24  0.7-  0.3+    070719 A24  0.1-  0.2+    070817 A24  0.6-  0.1+
070704 A24  0.7-  0.3+    070719 A24  0.2-  0.2+    070817 A24  0.3-  0.1+
070704 A24  0.1+  0.4-    070719 A24  0.1+  0.2+    070817 A24  0.1-  0.0
070704 A24  0.6-  0.2+    070719 A24  0.1+  0.2+    070817 A24  0.1-  0.1+
070704 A24  0.9+  0.4+    070719 A24  0.1+  0.1+    070817 A24  0.3-  0.0
070705 A24  0.3-  0.3+    070719 A24  0.1-  0.1+    070818 J53  0.1+  0.6-
070705 850  0.4-  0.4+    070719 A24  0.1+  0.1+    070818 J53  0.1-  0.5-
070705 850  0.9-  1.6+    070719 A24  0.1-  0.2+    070818 J53  0.2-  0.5-
070705 850  0.2+  0.5-    070719 A24  0.1-  0.1+    070819 A79  0.5+  0.4+
070705 850  0.4-  0.1+    070719 A24  0.4-  0.3+    070819 A79  0.7+  0.3+
070705 349  0.1+  0.3+    070719 J53  0.7-  0.1+    070819 A79  0.2+  0.2+
070705 349  0.2+  0.1+    070719 A24  0.0   0.0     070819 A79  0.3+  0.6+
070705 147  1.7-  0.7-    070720 J53  0.3-  0.1-    070820 J53  0.0   0.1-
070705 147  1.3-  0.6+    070720 J53  0.4-  0.7-    070820 J53  0.2-  0.1+
070705 J51  0.9-  1.4+    070720 A24  0.2-  0.1+    070820 J53  0.3-  0.3+
070706 A24  0.5+  0.0     070720 A24  0.2-  0.0     070821 585  0.0   0.1+
070706 A24  0.9+  1.8+    070720 J70 (0.9-  2.1-)   070821 585  0.5-  0.0
070706 A79  1.7+  1.3+    070720 J70  1.4-  0.4-    070821 585  0.6+  0.3+
070706 B19  0.2+  0.1-    070720 J70  0.8-  0.5+    070821 585  0.8-  0.0
070706 A79  0.6+  0.3+    070720 J70  0.5-  0.9+    070821 585  0.6-  0.4+
070706 A24  1.0-  1.0+    070720 J70  0.3-  0.1-    070821 585  0.5+  0.9-
070706 A79  0.6+  1.3+    070720 J70  0.8-  0.6+    070821 585  0.9-  0.0
070706 A24  0.2-  1.1+    070721 J51  0.3-  0.6-    070821 585  0.1+  0.4+
070706 A79  0.7+  0.9+    070721 J51  0.0   0.7-    070822 H68  0.6-  0.5-
070707 J53  0.5-  0.8-    070721 J51 (1.4+  2.1-)   070822 H68  0.9-  0.2-
070707 J53  0.4-  0.2-    070721 A79  0.1-  1.1+    070822 H68  1.7-  0.3+
070707 J53  0.4-  0.1+    070721 A79  0.6+  2.0+    070822 213  0.3-  0.0
070707 561  0.1+  0.3+    070721 A79  1.2+  0.5+    070822 213  0.2-  0.2-
070707 561  0.1+  0.1+    070722 J52  0.9+  0.6-    070822 213  0.1+  0.3-
070707 561  0.6-  0.1+    070722 J52  0.4+  0.1-    070823 473  0.0   0.3+
070707 157  0.1-  0.7-    070722 J52  0.3+  0.8+    070823 473  0.0   0.3+
070707 157  0.3-  0.5-    070722 850  0.0   0.4-    070823 232  0.6+  0.0
070707 157  0.3+  1.0-    070722 850  0.1+  0.2-    070823 232  0.6+  0.1+
070707 157  0.2-  1.2-    070722 850  1.2+  0.4+    070823 232  0.9+  0.5+

